Location: Huppendorf
(49.9333°N, 11.1500°E)
Time: 18:27:01
(UTC+00:00)

Spot 2 Rocket - Pass Details

Date: 27 February 2020
Orbit: 758 x 772 km, 98.6° (Epoch: 31 March)

Event Time Altitude Azimuth Distance (km) Brightness Sun altitude
Exits shadow 19:51:23 40° 6° (N) 1,128 4.4 -28.9°
Drops below altitude 10° 19:54:43 10° 350° (N) 2,323 6.4 -29.4°
Sets 19:57:03 0° 348° (NNW) 3,256 7.2 -29.7°
